Simultaneous Nadir Overpasses (SNOs) Predictions

Prediction of SNOs between METOP-C and LANDSAT-8 Satellite Orbit:

Table of predicted SNOs for the next 14.0 days since TLE Epoch: 6/12/2021
Index Date (METOP-C) Time (METOP-C) Lat,Lon (METOP-C) SZA (METOP-C ) Date (LANDSAT-8) Time (LANDSAT-8) Lat,Lon (LANDSAT-8) SZA (LANDSAT-8 ) Distance(km) Time Diff (sec)
1 06/13/2021 09:03:53 -81.16, -95.28 119.83 06/13/2021 09:03:55 -81.16, -95.31 119.83 0.61 2
2 06/13/2021 09:54:32 81.17, 72.37 60.21 06/13/2021 09:53:21 81.17, 72.46 60.19 1.60 71
3 06/16/2021 03:47:34 81.13, 162.94 59.92 06/16/2021 03:48:45 81.13, 162.90 59.95 0.83 71
4 06/16/2021 04:38:13 -81.17, -28.66 119.94 06/16/2021 04:38:10 -81.17, -28.79 119.96 2.33 3
5 06/18/2021 23:21:54 81.15,-130.12 59.91 06/18/2021 23:23:00 81.15,-130.27 59.92 2.47 66
6 06/19/2021 00:12:36 -81.15, 37.19 120.10 06/19/2021 00:12:27 -81.15, 37.33 120.09 2.39 9
7 06/21/2021 18:56:17 81.13, -64.33 59.80 06/21/2021 18:57:17 81.13, -64.20 59.84 2.19 60
8 06/21/2021 19:46:56 -81.17, 104.15 120.06 06/21/2021 19:46:42 -81.17, 104.15 120.06 0.50 14
9 06/24/2021 14:30:36 81.15, 2.59 59.89 06/24/2021 14:31:31 81.15, 2.57 59.91 0.36 55



Historial Predications of SNOs between METOP-C and LANDSAT-8
